Regional Weather Roundup
Issued by NWS

Home | Current Version | Previous Version | Text Only | Print | Product List | Glossary On
Versions: 1 2 3 4 5 6 7 8 9 10 11 12 13 14 15 16 17 18 19 20 21 22 23 24 25 26 27 28 29 30 31 32 33 34 35 36 37 38 39 40 41 42 43 44 45 46 47 48 49 50
000
ASUS43 KMKX 060321
RWRWI

WISCONSIN REGIONAL WEATHER ROUNDUP
NATIONAL WEATHER SERVICE MILWAUKEE/SULLIVAN WI
1000 PM CDT THU MAY 05 2016

NOTE: "FAIR" INDICATES FEW OR NO CLOUDS BELOW 12,000 FEET WITH NO
SIGNIFICANT WEATHER AND/OR OBSTRUCTIONS TO VISIBILITY.

WIZ001-002-006>008-014>016-023>028-060400-
NORTHWEST WISCONSIN

CITY           SKY/WX    TMP DP  RH WIND       PRES   REMARKS
SUPERIOR ARPT  PTCLDY    68  41  37 SW8       29.78S
ASHLAND        PTCLDY    63  40  42 S9        29.82S
HAYWARD        CLEAR     60  39  45 S6        29.86S
SIREN          CLEAR     64  38  38 S7        29.86S
CUMBERLAND     CLEAR     55  37  50 S3        29.88F
RICE LAKE      CLEAR     60  39  46 S6        29.90S
CHETEK         CLEAR     56  40  55 SE6       29.89S
LADYSMITH      PTCLDY    56  40  55 S5        29.91S
EAU CLAIRE     CLEAR     59  38  45 S6        29.90S
MENOMONIE      CLEAR     57  40  51 CALM      29.90S
NEW RICHMOND   CLEAR     60  39  45 S3        29.89S
OSCEOLA        CLEAR     62  40  43 S3        29.90S
$$

WIZ003>005-009-010-017-018-060400-
NORTH CENTRAL WISCONSIN

CITY           SKY/WX    TMP DP  RH WIND       PRES   REMARKS
MANITOWISH WTR PTCLDY    54  39  58 S3        29.90R
ARBOR VITAE    CLEAR     57  41  54 S3        29.91S
WOODRUFF       CLEAR     57  41  54 S3        29.91S
RHINELANDER    PTCLDY    57  38  48 SW5       29.93R
EAGLE RIVER    CLEAR     55  36  48 CALM      29.91S
LAND O LAKES   CLEAR     57  37  46 S3        29.91S
PHILLIPS       PTCLDY    57  39  50 S3        29.89F
TOMAHAWK       CLOUDY    53  38  58 CALM      29.92S
MEDFORD        PTCLDY    53  43  68 S6        29.92S
MERRILL        MOCLDY    56  43  61 CALM      29.93S
$$

WIZ029-030-035-036-043>047-060400-
CENTRAL WISCONSIN

CITY           SKY/WX    TMP DP  RH WIND       PRES   REMARKS
WAUSAU         MOCLDY    59  46  62 E5        29.92R
MOSINEE        MOCLDY    55  41  58 CALM      29.95R
MARSHFIELD     PTCLDY    57  38  48 SW7       29.92F
STEVENS POINT  PTCLDY    51  36  57 CALM      29.95R
WAUPACA        CLEAR     55  34  45 CALM      29.94S
WAUTOMA        CLEAR     49  36  61 CALM      29.96R
WISC RAPIDS    MOCLDY    57  38  48 SW6       29.95S
CAMP DOUGLAS     N/A     51  44  75 E3        29.95R
$$

WIZ011>013-019>022-031-037>040-048>050-060400-
NORTHEAST WISCONSIN

CITY           SKY/WX    TMP DP  RH WIND       PRES   REMARKS
ANTIGO         CLOUDY    50  39  67 CALM      29.94R
SHAWANO        CLEAR     61  34  36 W3        29.93S
OCONTO         CLEAR     51  46  83 S3        29.92S
STURGEON BAY   CLEAR     46  36  66 S8        29.96S
GREEN BAY      PTCLDY    53  41  63 S3        29.93R
MANITOWOC      CLEAR     46  38  73 MISG      29.96R
APPLETON       PTCLDY    52  36  54 VRB3      29.92S
CLINTONVILLE   CLEAR     54  36  50 CALM      29.93R
OSHKOSH        CLEAR     51  38  60 S7        29.94R
$$

WIZ032>034-041-042-053>061-060400-
SOUTHWEST WISCONSIN

CITY           SKY/WX    TMP DP  RH WIND       PRES   REMARKS
LA CROSSE      MOCLDY    60  42  51 SE6       29.93S
SPARTA         CLOUDY    54  42  64 CALM      29.96R
VIROQUA        MOCLDY    59  38  45 S6        29.96S
BOSCOBEL       CLEAR     53  41  63 CALM      29.97R
PRAIRIE DU CHI PTCLDY    56  41  58 CALM      29.97R
PLATTEVILLE    CLEAR     58  35  41 SW3       29.98S
$$

WIZ056-057-062-063-064-067-068-060400-
SOUTH CENTRAL WISCONSIN

CITY           SKY/WX    TMP DP  RH WIND       PRES   REMARKS
REEDSBURG      CLEAR     53  37  55 CALM      29.96R
BARABOO/DELLS  CLEAR     51  37  58 CALM      29.96R
LONE ROCK      CLEAR     51  40  65 NE3       29.97R
MINERAL POINT  CLEAR     57  30  35 SW3       29.97F
MADISON        CLEAR     49  35  58 CALM      29.96R
MIDDLETON      CLEAR     49  38  68 CALM      29.98R
WATERTOWN      CLEAR     47  40  76 CALM      29.95S
MONROE         CLEAR     57  36  44 SW8       29.98R
JANESVILLE     NOT AVBL
$$

WIZ051-052-058>065-066-070>072-060400-
SOUTHEAST WISCONSIN

CITY           SKY/WX    TMP DP  RH WIND       PRES   REMARKS
MILWAUKEE      PTCLDY    49  36  61 S3        29.98R
WAUKESHA       CLEAR     46  37  71 CALM      29.99R
MILWAUKEE/TIMM CLEAR     50  36  57 CALM      29.98S
RACINE         CLEAR     45  36  70 SW3       30.00R
BURLINGTON     CLEAR     46  39  77 CALM      29.98R
KENOSHA        CLEAR     45  37  73 S3        29.99R
FOND DU LAC    CLEAR     49  40  71 S6        29.95R
SHEBOYGAN      CLEAR     44  37  76 S5        29.96S
WEST BEND      CLEAR     46  37  71 S5        29.97S
JUNEAU         CLEAR     51  38  61 S3        29.96S
$$

LSZ147-162-060400-
LAKE SUPERIOR

STATION/POSITION TIME  TEMP    WIND        PRES    WAVE
                       AIR SEA DIR/SP/G            HT/PER
                 (UTC) (F)     (DEG/KT/KT) (MB)    (FT/S)
W MID LAKE BUOY  0250   42 37  130/  8/  8 1010.1R   0
DEVILS ISLAND    0300   63     200/  6/  8 1008.7R
SAXON HARBOR     0200   67     200/  6/ 10 1009.5S
$$

LMZ867-665-643>646-060400-
LAKE MICHIGAN

STATION/POSITION TIME  TEMP    WIND        PRES    WAVE
                       AIR SEA DIR/SP/G            HT/PER
                 (UTC) (F)     (DEG/KT/KT) (MB)    (FT/S)
CHAMBERS ISLAND  0240   48     140/  3/  6 1013.5R
N MID LAKE BUOY  0250   41 39  200/  8/  8 1014.1R
NORTHPORT PIER   0200   47     190/  4/  8 1013.5R
ALGOMA LAKESHORE 0215          200/ 11/ 12   N/A
KEWAUNEE LAKESHO 0200                      1013.3F
SHEBOYGAN LAKESH 0300   47     200/  6/  7 1015.4R
PORT WASHINGTON  0240   48     250/  2/  4 1015.6R
S MID LAKE BUOY  0250   41 40  260/  6/  6 1015.4R   2/ 5
KENOSHA   LAKESH 0300   48     210/  5/  5 1015.6R
$$

TC  - TEMPERATURE IN CELSIUS
VSB - VISIBILITY IN STATUTE MILES
WCI - WIND CHILL INDEX
HX  - HEAT INDEX




USA.gov is the U.S. government's official web portal to all federal, state and local government web resources and services.